• In Deutschland
  • Länderverzeichnis
  • Für 7 Tage
  • Wassertemperatur
  • Satellitenkarten
  • Wetterkarte
  • Widgets
  • user-avatar
    Anmelden

    Stündliche Wetter Rudolstadt

    Heute, 16 Juli, Montag

    Zeit Temperatur Niederschläge Wind Luftdruck Luftfeuchtigkeit
    00:00 +16°C° 0,1 mm 1 m/S 741 mmHg 83%
    01:00 +15°C° 0 mm 0 m/S 741 mmHg 85%
    02:00 +15°C° 0,2 mm 0 m/S 741 mmHg 86%
    03:00 +14°C° 0,2 mm 0 m/S 741 mmHg 87%
    04:00 +14°C° 0,2 mm 0 m/S 741 mmHg 88%
    05:00 +15°C° 0,1 mm 0 m/S 741 mmHg 85%
    06:00 +16°C° 0,1 mm 0 m/S 741 mmHg 82%
    07:00 +18°C° 0 mm 0 m/S 741 mmHg 77%
    08:00 +21°C° 0,4 mm 1 m/S 741 mmHg 73%
    09:00 +23°C° 0,4 mm 1 m/S 741 mmHg 70%
    10:00 +24°C° 0,4 mm 1 m/S 741 mmHg 66%
    11:00 +25°C° 0,4 mm 1 m/S 741 mmHg 63%
    12:00 +26°C° 0,4 mm 2 m/S 740 mmHg 59%
    13:00 +27°C° 0 mm 1 m/S 740 mmHg 53%
    14:00 +27°C° 0,7 mm 1 m/S 740 mmHg 55%
    15:00 +26°C° 0,7 mm 2 m/S 740 mmHg 58%
    16:00 +26°C° 0,7 mm 2 m/S 740 mmHg 61%
    17:00 +25°C° 0,3 mm 1 m/S 740 mmHg 64%
    18:00 +24°C° 0,3 mm 1 m/S 739 mmHg 68%
    19:00 +23°C° 0,3 mm 1 m/S 739 mmHg 72%
    20:00 +22°C° 0 mm 1 m/S 739 mmHg 74%
    21:00 +20°C° 0 mm 1 m/S 740 mmHg 76%
    22:00 +17°C° 0 mm 0 m/S 740 mmHg 78%
    23:00 +18°C° 0 mm 1 m/S 740 mmHg 79%

    Morgen, 17 Juli, Dienstag

    Zeit Temperatur Niederschläge Wind Luftdruck Luftfeuchtigkeit
    00:00 +18°C° 0 mm 1 m/S 740 mmHg 80%
    01:00 +16°C° 0 mm 1 m/S 740 mmHg 81%
    02:00 +16°C° 0 mm 1 m/S 740 mmHg 82%
    03:00 +16°C° 0 mm 1 m/S 740 mmHg 83%
    04:00 +15°C° 0 mm 1 m/S 740 mmHg 84%
    05:00 +18°C° 0 mm 1 m/S 740 mmHg 81%
    06:00 +19°C° 0 mm 1 m/S 740 mmHg 78%
    07:00 +21°C° 0 mm 1 m/S 741 mmHg 75%
    08:00 +23°C° 0 mm 2 m/S 741 mmHg 67%
    09:00 +25°C° 0 mm 2 m/S 741 mmHg 59%
    10:00 +26°C° 0 mm 3 m/S 741 mmHg 51%
    11:00 +27°C° 0 mm 3 m/S 741 mmHg 49%
    12:00 +28°C° 0 mm 3 m/S 741 mmHg 47%
    13:00 +28°C° 0 mm 3 m/S 740 mmHg 45%
    14:00 +28°C° 0 mm 3 m/S 740 mmHg 46%
    15:00 +28°C° 0 mm 3 m/S 740 mmHg 46%
    16:00 +28°C° 0 mm 3 m/S 740 mmHg 47%
    17:00 +27°C° 0 mm 3 m/S 740 mmHg 53%
    18:00 +26°C° 0 mm 2 m/S 740 mmHg 60%
    19:00 +25°C° 0 mm 2 m/S 740 mmHg 66%
    20:00 +24°C° 0 mm 2 m/S 740 mmHg 69%
    21:00 +21°C° 0 mm 2 m/S 740 mmHg 71%
    22:00 +19°C° 0 mm 2 m/S 741 mmHg 74%
    23:00 +19°C° 0 mm 2 m/S 741 mmHg 75%

    übermorgen, 18 Juli, Mittwoch

    Zeit Temperatur Niederschläge Wind Luftdruck Luftfeuchtigkeit
    00:00 +19°C° 0 mm 1 m/S 741 mmHg 75%
    01:00 +19°C° 0 mm 1 m/S 741 mmHg 76%
    02:00 +19°C° 0,1 mm 1 m/S 741 mmHg 78%
    03:00 +18°C° 0,1 mm 1 m/S 741 mmHg 80%
    04:00 +18°C° 0,1 mm 1 m/S 741 mmHg 83%
    05:00 +19°C° 0,1 mm 1 m/S 742 mmHg 81%
    06:00 +20°C° 0,1 mm 1 m/S 742 mmHg 79%
    07:00 +21°C° 0,1 mm 2 m/S 742 mmHg 77%
    08:00 +23°C° 0,3 mm 2 m/S 742 mmHg 74%
    09:00 +24°C° 0,3 mm 2 m/S 742 mmHg 71%
    10:00 +25°C° 0,3 mm 2 m/S 743 mmHg 68%
    11:00 +26°C° 0,4 mm 2 m/S 743 mmHg 65%
    12:00 +26°C° 0,4 mm 2 m/S 743 mmHg 63%
    13:00 +27°C° 0,4 mm 2 m/S 743 mmHg 60%
    14:00 +27°C° 0,4 mm 2 m/S 742 mmHg 61%
    15:00 +27°C° 0,4 mm 2 m/S 742 mmHg 62%
    16:00 +27°C° 0,4 mm 2 m/S 742 mmHg 63%
    17:00 +26°C° 0,3 mm 2 m/S 742 mmHg 67%
    18:00 +25°C° 0,3 mm 2 m/S 742 mmHg 72%
    19:00 +24°C° 0,3 mm 2 m/S 742 mmHg 77%
    20:00 +23°C° 0,1 mm 2 m/S 743 mmHg 79%
    21:00 +20°C° 0,1 mm 2 m/S 743 mmHg 81%
    22:00 +18°C° 0,1 mm 2 m/S 743 mmHg 83%
    23:00 +18°C° 0 mm 1 m/S 743 mmHg 83%

    19 Juli, Donnerstag

    Zeit Temperatur Niederschläge Wind Luftdruck Luftfeuchtigkeit
    00:00 +18°C° 0 mm 1 m/S 743 mmHg 84%
    01:00 +16°C° 0 mm 1 m/S 743 mmHg 84%
    02:00 +15°C° 0 mm 1 m/S 743 mmHg 85%
    03:00 +15°C° 0 mm 1 m/S 743 mmHg 86%
    04:00 +14°C° 0 mm 1 m/S 743 mmHg 87%
    05:00 +16°C° 0 mm 1 m/S 743 mmHg 84%
    06:00 +18°C° 0 mm 1 m/S 744 mmHg 81%
    07:00 +19°C° 0 mm 1 m/S 744 mmHg 78%
    08:00 +21°C° 0 mm 1 m/S 744 mmHg 71%
    09:00 +23°C° 0 mm 1 m/S 744 mmHg 64%
    10:00 +24°C° 0 mm 2 m/S 744 mmHg 57%
    11:00 +25°C° 0 mm 2 m/S 744 mmHg 53%
    12:00 +26°C° 0 mm 2 m/S 744 mmHg 49%
    13:00 +27°C° 0 mm 2 m/S 743 mmHg 46%
    14:00 +27°C° 0 mm 2 m/S 743 mmHg 45%
    15:00 +27°C° 0 mm 2 m/S 743 mmHg 45%
    16:00 +27°C° 0 mm 2 m/S 743 mmHg 44%
    17:00 +26°C° 0 mm 2 m/S 743 mmHg 50%
    18:00 +25°C° 0 mm 2 m/S 743 mmHg 56%
    19:00 +24°C° 0 mm 1 m/S 742 mmHg 62%
    20:00 +22°C° 0 mm 1 m/S 743 mmHg 65%
    21:00 +20°C° 0 mm 1 m/S 743 mmHg 67%
    22:00 +19°C° 0 mm 1 m/S 743 mmHg 70%
    23:00 +18°C° 0 mm 1 m/S 743 mmHg 72%

    20 Juli, Freitag

    Zeit Temperatur Niederschläge Wind Luftdruck Luftfeuchtigkeit
    00:00 +16°C° 0 mm 1 m/S 743 mmHg 73%
    01:00 +15°C° 0 mm 0 m/S 743 mmHg 74%
    02:00 +15°C° 0 mm 0 m/S 743 mmHg 76%
    03:00 +14°C° 0 mm 0 m/S 742 mmHg 78%
    04:00 +14°C° 0 mm 0 m/S 742 mmHg 79%
    05:00 +16°C° 0 mm 1 m/S 742 mmHg 75%
    06:00 +19°C° 0 mm 1 m/S 742 mmHg 71%
    07:00 +21°C° 0 mm 1 m/S 742 mmHg 66%
    08:00 +22°C° 0 mm 1 m/S 742 mmHg 61%
    09:00 +24°C° 0 mm 2 m/S 742 mmHg 55%
    10:00 +26°C° 0 mm 2 m/S 742 mmHg 49%
    11:00 +27°C° 0 mm 2 m/S 742 mmHg 46%
    12:00 +28°C° 0 mm 2 m/S 742 mmHg 43%
    13:00 +29°C° 0 mm 2 m/S 741 mmHg 40%
    14:00 +29°C° 0 mm 2 m/S 741 mmHg 42%
    15:00 +29°C° 0 mm 2 m/S 741 mmHg 43%
    16:00 +28°C° 0 mm 2 m/S 740 mmHg 44%
    17:00 +27°C° 0 mm 2 m/S 740 mmHg 51%
    18:00 +26°C° 0 mm 2 m/S 740 mmHg 58%
    19:00 +24°C° 0 mm 2 m/S 740 mmHg 64%
    20:00 +23°C° 0,1 mm 2 m/S 740 mmHg 66%
    21:00 +21°C° 0,1 mm 2 m/S 740 mmHg 68%
    22:00 +20°C° 0,1 mm 2 m/S 740 mmHg 70%
    23:00 +20°C° 0,4 mm 2 m/S 739 mmHg 74%

    21 Juli, Samstag

    Zeit Temperatur Niederschläge Wind Luftdruck Luftfeuchtigkeit
    00:00 +20°C° 0,4 mm 1 m/S 739 mmHg 77%
    01:00 +20°C° 0,4 mm 1 m/S 739 mmHg 80%
    02:00 +19°C° 0,8 mm 1 m/S 739 mmHg 83%
    03:00 +19°C° 0,8 mm 1 m/S 739 mmHg 86%
    04:00 +19°C° 0,8 mm 1 m/S 739 mmHg 89%
    05:00 +19°C° 0,7 mm 1 m/S 738 mmHg 89%
    06:00 +19°C° 0,7 mm 1 m/S 738 mmHg 90%
    07:00 +19°C° 0,7 mm 1 m/S 738 mmHg 90%
    08:00 +20°C° 0,3 mm 1 m/S 738 mmHg 87%
    09:00 +22°C° 0,3 mm 1 m/S 738 mmHg 83%
    10:00 +23°C° 0,3 mm 2 m/S 738 mmHg 80%
    11:00 +23°C° 0,6 mm 2 m/S 738 mmHg 78%
    12:00 +24°C° 0,6 mm 2 m/S 738 mmHg 76%
    13:00 +24°C° 0,6 mm 2 m/S 738 mmHg 75%
    14:00 +24°C° 1,2 mm 2 m/S 738 mmHg 76%
    15:00 +24°C° 1,2 mm 2 m/S 738 mmHg 77%
    16:00 +24°C° 1,2 mm 2 m/S 738 mmHg 78%
    17:00 +23°C° 1,4 mm 2 m/S 738 mmHg 82%
    18:00 +21°C° 1,4 mm 2 m/S 738 mmHg 85%
    19:00 +20°C° 1,4 mm 2 m/S 738 mmHg 89%
    20:00 +19°C° 1 mm 2 m/S 738 mmHg 91%
    21:00 +18°C° 1 mm 2 m/S 738 mmHg 93%
    22:00 +17°C° 1 mm 2 m/S 739 mmHg 96%
    23:00 +17°C° 0,3 mm 3 m/S 739 mmHg 96%
    Mehr zeigen